GALAXY 27 (G-27)

Last updated on Sun May 29 2016 17:40:17 GMT+0000 (Coordinated Universal Time)

1 25922U 99052A 16149.61591787 -.00000240 00000-0 00000-0 0 9997 2 25922 2.4204 73.5849 0001599 56.5701 303.0121 0.99020494 14909
UTC large
Height (km)
Speed (km/s)
/
Latitude / Longitude
Inclination (degrees)
Orbital Period (minutes)
Azimuth
Elevation
Range (km)
Doppler Factor

Next 0 passes for location: London (51.5072 / 0.1276)

Sorry there are no passes over London.